Regional Weather Roundup
Issued by NWS Green Bay, WI

Home | Current Version | Previous Version | Text Only | Print | Product List | Glossary On
Versions: 1 2 3 4 5 6 7 8 9 10 11 12 13 14 15 16 17 18 19 20 21 22 23 24 25 26 27 28 29 30 31 32 33 34 35 36 37 38 39 40 41 42 43 44 45 46 47 48 49 50
752
ASUS43 KGRB 072211
RWRGRB

NORTH-CENTRAL AND NORTHEAST WISCONSIN REGIONAL WEATHER ROUNDUP
NATIONAL WEATHER SERVICE GREEN BAY WI
400 PM CST SUN FEB 07 2016

WIZ005-009-010>012-018-019-072300-
NORTH CENTRAL WISCONSIN

CITY           SKY/WX    TMP DP  RH WIND       PRES   REMARKS
IRONWOOD       CLOUDY    34  34 100 SW10      29.46R
MANITOWISH WTR LGT SNOW  33  32  96 SW10      29.48S
ARBOR VITAE    FLURRIES  37  33  88 W7        29.50R
EAGLE RIVER    LGT SNOW  33  32  96 SW9       29.50R
LAND O LAKES   LGT SNOW  33  33  98 SW5       29.50R
RHINELANDER    CLOUDY    34  29  82 SW6       29.52R
PHILLIPS       LGT SNOW  33  31  91 SW8       29.51S
ANTIGO         CLOUDY    35  28  76 W13       29.55R
TOMAHAWK       CLOUDY    35  29  78 SW3       29.53S
MERRILL        CLOUDY    37  29  73 W9        29.56R
$$

WIZ013-073-072300-
NORTHEAST WISCONSIN

CITY           SKY/WX    TMP DP  RH WIND       PRES   REMARKS
IRON MOUNTAIN  CLOUDY    36  29  75 SW6       29.52R
MARINETTE      CLOUDY    39  28  65 W5        29.58R
OCONTO         CLOUDY    38  31  74 SW5       29.59S
$$

WIZ017-030-035>037-045-072300-
CENTRAL WISCONSIN

CITY           SKY/WX    TMP DP  RH WIND       PRES   REMARKS
MEDFORD        CLOUDY    36  28  72 SW7       29.54R
WAUSAU         CLOUDY    39  27  62 W10       29.55R
MOSINEE        CLOUDY    37  28  70 W13       29.58R
MARSHFIELD     CLOUDY    39  25  57 W12       29.57R
WISC RAPIDS    CLOUDY    40  24  53 W15       29.61R
STEVENS POINT  CLOUDY    38  26  63 W8G16     29.58S
WAUPACA        CLOUDY    42  29  60 SW8       29.60S
SHAWANO        CLOUDY    41  30  64 SW3       29.58S
CLINTONVILLE   CLOUDY    37  28  70 W8        29.59R
WAUTOMA        MOSUNNY   41  27  57 W14       29.62R
$$

WIZ038-039-048-051-072300-
FOX VALLEY

CITY           SKY/WX    TMP DP  RH WIND       PRES   REMARKS
NWS GREEN BAY  CLOUDY    39  30  70 SW6       29.61R
APPLETON       PTSUNNY   39  28  65 VRB5      29.59R
OSHKOSH        CLOUDY    40  29  64 SW7       29.61R
FOND DU LAC    CLOUDY    40  30  67 SW9       29.63R
$$

WIZ022-050-052-072300-
EAST CENTRAL WISCONSIN

CITY           SKY/WX    TMP DP  RH WIND       PRES   REMARKS
EPHRAIM        CLOUDY    38  30  72 SW9G17    29.57R
STURGEON BAY   CLOUDY    37  28  70 SW8       29.62R
MANITOWOC      CLOUDY    41  30  65 MISG      29.63R
SHEBOYGAN      MOSUNNY   40  30  67 SW16      29.64R
$$

LMZ563-521-522-541>543-072300-
LAKESHORE

STATION/POSITION TIME  TEMP    WIND        PRES    VSBY  WAVE
                       AIR SEA DIR/SP/G                  HT/PER
                 (UTC) (F)     (DEG/KT/KT) (MB)    (MI)  (FT/S)
SHEBOYGAN LKSHOR 2200   43     240/ 12/ 15 1004.4R
KEWAUNEE LKSHORE 2100   40     200/  7/ 10 1001.9R
NORTHPORT PIER   2100   41     230/  4/ 10 1001.4R
CHAMBERS ISLAND  2100   37     190/  7/ 12 1001.7S
MENOMINEE LKSHOR 2100   37     190/  5     1000.6R
$$




USA.gov is the U.S. government's official web portal to all federal, state and local government web resources and services.